840  
ASUS41 KBGM 242010  
RWRBGM  
 
REGIONAL WEATHER ROUNDUP  
NATIONAL WEATHER SERVICE BINGHAMTON NY  
400 PM EDT MON APR 24 2017  
 
NOTE: "FAIR" INDICATES FEW OR NO CLOUDS BELOW 12,000 FEET WITH NO  
SIGNIFICANT WEATHER AND/OR S TO VISIBILITY
.  
 
* = STATION(S) THAT DOES NOT REPORT PRECIPITATION, SUCH AS RAIN,  
SNOW, ETC, ALSO NO THUNDER OR FOG.
 
 
NYZ009-015>018-022>025-036-037-044>046-055>057-062-242100   
..CENTRAL NEW YORK
 
 
 
CITY SKY/WX TMP DP RH WIND PRES REMARKS
 
BINGHAMTON SUNNY 69 31 24 VRB7G18 30.07F  
DANSVILLE SUNNY 69 46 43 N10 30.05F  
ELMIRA SUNNY 73 35 25 SE12G18 30.04F  
SENECA FALLS CLEAR 64 45 48 N13 30.10F  
ITHACA SUNNY 65 46 50 NW10 30.08F  
HAMILTON SUNNY 70 36 28 NE5G12 30.09F  
MONTICELLO NOT AVBL  
NORWICH SUNNY 72 32 23 N8 30.07F  
PENN YAN SUNNY 64 42 44 VRB7 30.09F  
ROME SUNNY 70 36 28 CALM 30.10F  
SIDNEY SUNNY 73 27 17 CALM 30.06S  
SYRACUSE PTSUNNY 69 35 28 NE8 30.09F  

 
 
PAZ038>040-043-044-047-048-072-242100   
..NORTHEAST PENNSYLVANIA
 
 
 
CITY SKY/WX TMP DP RH WIND PRES REMARKS
 
HAZLETON CLOUDY 61 34 36 E6 30.13F  
SCRANTON CLOUDY 68 31 25 SE7 30.08F  

 

 
KEY  
WCI = WIND CHILL INDEX  
VSB = VISIBILITY  
HX = HEAT INDEX  

 
 
 
CLICK HERE TO GO TO PREVIOUS BULLETINS.

The Nexlab NY Page
The Nexlab PA Page Main Text Page